Weather in Sibiu

Romania     45°47′24″N   24°08′07″E
temp.,
°C
wind,
m/s
gust,
m/s
humid.,
%
clouds,
%
prec.,
mm/h
press.,
hPa
HPBL,
m
16 june, wed
wed1600:00+13ssw21935 1.3 101517
03:00+12ssw119228 1.9 101511
06:00+13ssw119299 0.4 101512
09:00+17nw23835 0.4 1015504
12:00+20n22737 0.6 1016873
15:00+21nne11716 2.9 1015967
18:00+21nnw117226 1.0 1014241
21:00+17ssw22827 3.6 101611
17 june, thu
thu1700:00+14ssw228817 0.6 101715
03:00+13s119041 0.6 101713
06:00+13ssw11915 0.0 101811
09:00+17ne108523 0.0 1019279
12:00+20ne2372100 0.3 1019811
15:00+21ene2268100 0.3 1018756
18:00+22ne126588 0.0 10181034
21:00+17se1185100 0.8 101911
18 june, fri
fri1800:00+15ssw1188100 0.1 101913
03:00+15sse1187100 0.1 101911
06:00+15sw1190100 0.2 101917
09:00+17ene1187100 0.4 1020181
12:00+19e128350 0.4 1020480
15:00+22ne237563 1.1 1018993
18:00+22e1182100 4.6 101766
21:00+18nw008589 6.9 101711
19 june, sat
sat1900:00+16sw11905 0.3 101913
03:00+16sw1190100 0.3 101811
06:00+16se1190100 0.0 101811
09:00+19ene2583100 0.1 1019596
12:00+21ene676917 0.1 10181219
15:00+23ene45595 0.1 10171505
18:00+22ene577210 0.3 1017746
21:00+17ese11905 0.7 101711
20 june, sun
sun2000:00+14s119115 0.0 101813
03:00+13sse119188 0.0 101812
06:00+13s11919 0.0 101811
09:00+17ne118379 0.0 1018292
12:00+21ne22715 0.1 1017732
15:00+23ne21666 0.6 10151041
18:00+23ese11656 1.1 10141128
21:00+18sse11835 1.3 101412